TIME,DELAY(SENSOR),PRES,OXYGEN,RAWTEMP,T(OPTODE),TCPHASE,FLUOR,BETA(BETA700),BETA(BETA412),BETA(BETA440),CDOM,C(CSC),ED(ED411.90),ED(ED443.80),ED(ED489.40),ED(ED554.70),LU(LU412.20),LU(LU443.80),LU(LU489.40),LU(LU555.00),COMP,TILTX,TILTY,CHECK
1377899531,5808,899.5800170898438000,117.0587997436523400,409.6726074218750000,10.3076696395874020,42.8837814331054700,91,3228,49,50,55,10148,2146961014,2147515840,2147290121,2147493915,2147081700,2146926427,2147700854,2147125842,958,-1,8,15157
1377903127,5755,1058.8599853515625000,138.6206054687500000,491.7734069824219000,7.7844920158386230,42.2209815979003900,92,3272,49,50,56,10156,2146963273,2147515712,2147299620,2147509778,2147086985,2146923291,2147716297,2147121801,1614,-1,8,42726
1377906727,5804,1104.7299804687500000,141.2951965332031200,515.0939941406250000,7.0604429244995120,42.3901100158691400,93,3287,49,50,55,10126,2146963830,2147513581,2147299602,2147511268,2147085065,2146919040,2147718409,2147122688,1193,-1,8,24526
1377910327,5805,1106.5300292968750000,150.1513061523437500,519.5352783203125000,6.9221282005310060,41.7439384460449200,94,3286,48,51,55,10120,2146966171,2147514066,2147302491,2147515757,2147087798,2146919533,2147725449,2147124397,1427,-1,8,47655
1377913927,5807,1097.7800292968750000,128.7041015625000000,519.8181152343750000,6.9133138656616210,43.5569190979003900,94,3287,49,51,54,10116,2146964022,2147515419,2147303689,2147510875,2147083840,2146913069,2147722971,2147122358,1521,0,8,20124
1377917527,5808,1097.3900146484375000,139.9248046875000000,522.0966796875000000,6.8422908782958980,42.6231994628906250,95,3290,49,50,54,10123,2146961920,2147515428,2147305801,2147512027,2147082432,2146916297,2147720877,2147121581,56,0,8,4670
1377921127,5804,1096.8000488281250000,145.8921051025390600,522.3972778320312000,6.8329210281372070,42.1352806091308600,94,3293,48,50,55,10114,2146961408,2147516854,2147302866,2147512841,2147081280,2146914194,2147720685,2147118793,3481,-1,8,49176
1377924727,5805,1082.5000000000000000,141.3417968750000000,515.1621704101562000,7.0583209991455080,42.3863296508789060,94,3293,48,50,54,10126,2146964178,2147515785,2147303012,2147511771,2147084498,2146916397,2147720374,2147122971,2781,0,8,44707
1377928327,5809,1082.1899414062500000,177.2971954345703000,517.3065795898438000,6.9915509223937990,39.6865692138671900,94,3308,49,50,55,10120,2146963026,2147513984,2147303094,2147515373,2147087204,2146921088,2147721828,2147121536,498,-1,8,44804
1377931927,5808,1091.6899414062500000,174.4053039550781200,515.6384887695312000,7.0434908866882320,39.8592987060546900,95,3316,50,50,54,10130,2146964086,2147518244,2147301266,2147513270,2147082011,2146916068,2147719872,2147121462,946,-1,8,34625
1377935527,5806,1072.1099853515625000,160.5751953125000000,505.6689147949219000,7.3535151481628420,40.6940193176269500,94,3314,49,50,54,10146,2146962898,2147516480,2147302628,2147513261,2147085970,2146918820,2147720923,2147121005,331,-1,8,43030
1377939127,5807,1075.5000000000000000,115.8402023315429700,503.2401123046875000,7.4289379119873050,44.4772491455078100,95,3325,49,50,54,10144,2146962715,2147517531,2147301851,2147510756,2147085504,2146920923,2147716918,2147122139,496,-1,8,6064
1377942727,5803,1077.0699462890625000,142.1907958984375000,502.6978149414062500,7.4457731246948240,42.1031913757324200,95,3336,49,50,55,10097,2146964352,2147519798,2147301421,2147510107,2147083209,2146919478,2147719067,2147123419,3266,-1,8,25738
1377946327,5807,1058.6400146484375000,159.5726013183593800,494.4649963378906000,7.7011098861694340,40.5762100219726560,96,3347,50,50,56,10097,2146964690,2147517458,2147300105,2147506048,2147084224,2146918784,2147718098,2147120914,67,-1,8,10065
1377949927,5805,1055.2600097656250000,111.8846969604492200,494.2379150390625000,7.7081470489501950,44.7187118530273440,96,3355,49,50,55,10093,2146965174,2147516589,2147301321,2147506230,2147085860,2146920658,2147712009,2147124416,3517,-1,8,47084
1377953527,5808,1050.1600341796875000,97.3359069824218800,495.5798034667969000,7.6665620803833010,46.2367591857910160,96,3363,48,50,55,10095,2146960512,2147521234,2147300672,2147505051,2147087241,2146919981,2147714496,2147120859,549,-1,8,18641
1377957127,5807,1038.5000000000000000,152.5543060302734400,484.2076110839844000,8.0186243057250980,40.9470405578613300,96,3369,49,50,55,10093,2146963986,2147516342,2147301284,2147506212,2147085092,2146927332,2147711186,2147119561,435,-1,8,42489
1377960727,5806,1042.5799560546875000,141.1394042968750000,481.5456848144531000,8.1009130477905270,41.8377685546875000,96,3371,49,50,55,10094,2146965961,2147516598,2147302345,2147507794,2147083958,2146919332,2147713846,2147123328,34,-1,8,53259
1377964327,5808,1045.5100097656250000,151.8603057861328000,481.3760986328125000,8.1061515808105470,40.9545593261718750,96,3376,50,51,55,10095,2146966747,2147515803,2147298998,2147507904,2147083364,2146920960,2147711707,2147125366,139,-1,8,26102
1377967927,5804,1022.6500244140625000,127.2760009765625000,475.3775939941406000,8.2914209365844730,42.9532890319824200,97,3382,48,51,55,10089,2146963382,2147514971,2147299483,2147508141,2147081929,2146924361,2147707538,2147122870,2944,-1,8,30248
1377971527,5807,1022.4199829101562000,131.9541931152343800,474.9697875976562500,8.3040065765380860,42.5251502990722660,97,3383,48,50,55,10087,2146960448,2147519040,2147301659,2147507026,2147084214,2146925220,2147706011,2147122889,3090,-1,8,63451
1377975127,5806,1023.5900268554688000,130.2485961914062500,474.8826904296875000,8.3066959381103520,42.6754798889160160,98,3385,48,50,54,10082,2146962166,2147517266,2147301092,2147503597,2147083264,2146927469,2147711414,2147121289,3175,-1,8,38952
1377978727,5805,1025.5300292968750000,142.6233978271484400,473.5144042968750000,8.3489217758178710,41.5778198242187500,97,3386,49,50,54,10087,2146960978,2147515876,2147300516,2147506697,2147086409,2146926966,2147712585,2147122614,1167,-1,8,53976
1377982327,5804,1026.9000244140625000,148.2138977050781200,472.2990112304687500,8.3864202499389650,41.0962600708007800,98,3389,48,50,55,10082,2146958281,2147519314,2147299136,2147505517,2147085147,2146922880,2147714944,2147124187,1235,-1,8,40958
1377985927,5806,1027.2900390625000000,145.6192932128906200,473.2909851074219000,8.3558168411254880,41.3262901306152340,98,3390,49,50,54,10080,2146960009,2147519049,2147300882,2147505956,2147085147,2146924324,2147713280,2147123776,1212,-1,8,22288
1377989527,5806,1028.5999755859375000,110.8699035644531200,473.3449096679687500,8.3541507720947270,44.4924507141113300,98,3393,49,51,54,10073,2146961709,2147517467,2147300672,2147502080,2147082304,2146924333,2147710811,2147122806,3239,-1,8,45814
1377993127,5804,1028.4499511718750000,120.9993972778320300,471.9790039062500000,8.3962917327880860,43.4822196960449200,98,3400,49,50,54,10077,2146960082,2147513609,2147296173,2147505517,2147088685,2146928859,2147709110,2147123410,3529,-1,8,46635
1377996727,5805,1025.1999511718750000,121.5072021484375000,473.9928894042969000,8.3341588973999020,43.4675407409668000,98,3411,50,50,55,10076,2146960310,2147516736,2147298304,2147504402,2147081572,2146923373,2147711277,2147122962,237,-1,8,9742
1378000327,5806,1034.0200195312500000,155.4102020263672000,470.1193847656250000,8.4536428451538090,40.4847908020019500,98,3412,48,51,55,10078,2146962432,2147515849,2147297691,2147508278,2147080676,2146925851,2147709275,2147121097,113,-1,8,54790
1378003927,5807,1031.0100097656250000,125.6579971313476600,473.1228027343750000,8.3610057830810550,43.0658111572265600,98,3419,48,50,55,10076,2146962870,2147513353,2147298185,2147509814,2147082971,2146922806,2147713499,2147120219,227,-1,8,43230
1378007527,5805,1037.5500488281250000,150.9747009277343800,469.6878967285156000,8.4669494628906250,40.8295898437500000,100,3433,48,50,55,10078,2146962294,2147515812,2147298212,2147505462,2147081901,2146922688,2147709760,2147121645,3490,-1,8,16625
1378011127,5803,1016.5800170898438000,140.6732940673828000,458.9924011230469000,8.7963962554931640,41.5026397705078100,99,3428,48,50,55,10077,2146963776,2147516269,2147295488,2147502957,2147082112,2146923090,2147706075,2147122349,3298,-1,8,25276
1378014727,5804,1013.1599731445312000,133.4430999755859400,458.9927062988281000,8.7963867187500000,42.1324195861816400,99,3434,48,50,54,10073,2146965184,2147518665,2147300708,2147503533,2147083794,2146925110,2147708955,2147123867,3574,-1,8,45817
1378018327,5805,1012.5700073242188000,141.3217010498047000,458.9079895019531000,8.7989921569824220,41.4477806091308600,99,3436,48,50,54,10077,2146961042,2147516123,2147298157,2147502528,2147082825,2146930029,2147710409,2147122550,3301,-1,8,13308
1378021927,5803,1011.8599853515625000,131.6757049560547000,458.6820068359375000,8.8059453964233400,42.2835502624511700,99,3446,49,50,54,10061,2146964434,2147516891,2147297764,2147499446,2147081700,2146928192,2147709659,2147122889,3054,-1,8,31320
1378025527,5807,1011.2399902343750000,136.9965057373047000,458.9619140625000000,8.7973337173461910,41.8201408386230500,100,3448,49,50,56,10061,2146965266,2147517485,2147298944,2147504219,2147086125,2146926070,2147711698,2147120438,70,-1,8,34220
1378029127,5804,1011.7600097656250000,139.5979003906250000,460.7604980468750000,8.7419805526733400,41.6249504089355500,99,3452,49,50,54,10061,2146960722,2147519177,2147296841,2147502326,2147084800,2146922057,2147708699,2147123337,3298,-1,8,10449
1378032727,5808,1012.4799804687500000,149.6880035400390600,459.1390075683594000,8.7918834686279300,40.7559700012207000,100,3458,47,50,55,10055,2146963474,2147514962,2147298011,2147503533,2147080640,2146926893,2147711058,2147123574,637,-1,8,37225
1378036327,5804,1009.7999877929688000,131.9631958007812500,461.9606018066406000,8.7050342559814450,42.3120307922363300,101,3463,49,50,54,10060,2146962660,2147518555,2147296923,2147504539,2147086262,2146919753,2147708598,2147122221,3510,-1,8,46830
1378039927,5807,1015.4699707031250000,144.5124969482422000,460.0208129882812500,8.7647457122802730,41.1967201232910160,100,3467,49,51,55,10060,2146963190,2147515885,2147296338,2147500251,2147082596,2146923401,2147708937,2147124132,479,-1,8,47666
1378042255,5806,1014.1400146484375000,136.1584014892578000,460.0956115722656000,8.7624454498291020,41.9099006652832000,101,3468,48,50,54,10117,2146960411,2147517120,2147295926,2147503259,2147085001,2146921545,2147708973,2147122779,141,-1,8,4593
